| time (UTC) | temp C | wind direction | speed KPH | gust KPH | rain 1hr cm | rain 24hr cm | rain mn cm | humidity % | barometer mb |
| 20260508111503 | 6 | 324 | 11.3 | 20.9 | 0.00 | 0.00 | 0.00 | 76 | 1005.9 |
| 20260508111004 | 6 | 327 | 11.3 | 20.9 | 0.00 | 0.00 | 0.00 | 77 | 1005.9 |
| 20260508110714 | 6 | 329 | 9.7 | 20.9 | 0.00 | 0.00 | 0.00 | 78 | 1006.0 |
| 20260508110004 | 5 | 330 | 8.0 | 19.3 | 0.00 | 0.00 | 0.00 | 80 | 1005.9 |
| 20260508105503 | 5 | 333 | 9.7 | 19.3 | 0.00 | 0.00 | 0.00 | 81 | 1005.8 |
| 20260508105003 | 5 | 333 | 11.3 | 24.1 | 0.00 | 0.00 | 0.00 | 84 | 1005.7 |
| 20260508104714 | 4 | 330 | 9.7 | 24.1 | 0.00 | 0.00 | 0.00 | 86 | 1005.7 |
| 20260508104004 | 3 | 322 | 3.2 | 14.5 | 0.00 | 0.00 | 0.00 | 90 | 1005.7 |
| 20260508103503 | 3 | 322 | 3.2 | 12.9 | 0.00 | 0.00 | 0.00 | 92 | 1005.6 |
| 20260508103003 | 3 | 322 | 3.2 | 12.9 | 0.00 | 0.00 | 0.00 | 93 | 1005.4 |
| 20260508102503 | 2 | 322 | 1.6 | 6.4 | 0.00 | 0.00 | 0.00 | 93 | 1005.4 |
| 20260508102213 | 2 | 322 | 1.6 | 11.3 | 0.00 | 0.00 | 0.00 | 93 | 1005.3 |
| 20260508101713 | 2 | 322 | 1.6 | 11.3 | 0.00 | 0.00 | 0.00 | 93 | 1005.4 |
| 20260508101214 | 2 | 322 | 1.6 | 4.8 | 0.00 | 0.00 | 0.00 | 93 | 1005.3 |
| 20260508100503 | 1 | 0 | 0.0 | 0.0 | 0.00 | 0.00 | 0.00 | 93 | 1005.2 |
| 20260508100004 | 1 | 0 | 0.0 | 0.0 | 0.00 | 0.00 | 0.00 | 92 | 1005.2 |
| 20260508095503 | 1 | 0 | 0.0 | 0.0 | 0.00 | 0.00 | 0.00 | 92 | 1005.2 |
| 20260508095212 | 1 | 0 | 0.0 | 0.0 | 0.00 | 0.00 | 0.00 | 92 | 1005.3 |
| 20260508094503 | 1 | 322 | 0.0 | 3.2 | 0.00 | 0.00 | 0.00 | 92 | 1005.1 |
| 20260508094003 | 1 | 322 | 0.0 | 3.2 | 0.00 | 0.00 | 0.00 | 92 | 1005.0 |
| 20260508093503 | 1 | 322 | 0.0 | 1.6 | 0.00 | 0.00 | 0.00 | 92 | 1005.0 |
| 20260508093003 | 1 | 322 | 0.0 | 1.6 | 0.00 | 0.00 | 0.00 | 91 | 1005.1 |
| 20260508092503 | 1 | 322 | 0.0 | 3.2 | 0.00 | 0.00 | 0.00 | 91 | 1005.0 |
| 20260508092003 | 1 | 322 | 0.0 | 3.2 | 0.00 | 0.00 | 0.00 | 91 | 1005.1 |
| 20260508091503 | 1 | 322 | 0.0 | 3.2 | 0.00 | 0.00 | 0.00 | 91 | 1005.0 |
| 20260508091003 | 1 | 322 | 0.0 | 3.2 | 0.00 | 0.00 | 0.00 | 91 | 1004.9 |
| 20260508090503 | 1 | 322 | 0.0 | 3.2 | 0.00 | 0.00 | 0.00 | 90 | 1004.9 |
| 20260508090003 | 1 | 322 | 0.0 | 1.6 | 0.00 | 0.00 | 0.00 | 90 | 1004.7 |
| 20260508085503 | 1 | 322 | 0.0 | 1.6 | 0.00 | 0.00 | 0.00 | 90 | 1004.7 |
| 20260508085003 | 1 | 0 | 0.0 | 0.0 | 0.00 | 0.00 | 0.00 | 90 | 1004.7 |
| 20260508084713 | 1 | 0 | 0.0 | 0.0 | 0.00 | 0.00 | 0.00 | 89 | 1004.7 |
| 20260508084003 | 1 | 0 | 0.0 | 0.0 | 0.00 | 0.00 | 0.00 | 89 | 1004.8 |
| 20260508083503 | 1 | 0 | 0.0 | 0.0 | 0.00 | 0.00 | 0.00 | 89 | 1004.8 |
| 20260508083003 | 1 | 0 | 0.0 | 0.0 | 0.00 | 0.00 | 0.00 | 89 | 1004.8 |
| 20260508082713 | 1 | 0 | 0.0 | 0.0 | 0.00 | 0.00 | 0.00 | 89 | 1004.8 |
| 20260508082003 | 2 | 0 | 0.0 | 0.0 | 0.00 | 0.00 | 0.00 | 89 | 1004.8 |
| 20260508081503 | 2 | 0 | 0.0 | 0.0 | 0.00 | 0.00 | 0.00 | 88 | 1004.8 |
| 20260508081003 | 2 | 0 | 0.0 | 0.0 | 0.00 | 0.00 | 0.00 | 88 | 1004.8 |
| 20260508080503 | 2 | 0 | 0.0 | 0.0 | 0.00 | 0.00 | 0.00 | 88 | 1004.7 |
| 20260508080214 | 2 | 0 | 0.0 | 0.0 | 0.00 | 0.00 | 0.00 | 88 | 1004.6 |
| 20260508075504 | 2 | 322 | 0.0 | 4.8 | 0.00 | 0.00 | 0.00 | 88 | 1004.6 |
| 20260508075003 | 2 | 322 | 0.0 | 4.8 | 0.00 | 0.00 | 0.00 | 88 | 1004.5 |
| 20260508074503 | 2 | 322 | 0.0 | 3.2 | 0.00 | 0.00 | 0.00 | 88 | 1004.4 |
| 20260508074003 | 2 | 322 | 0.0 | 3.2 | 0.00 | 0.00 | 0.00 | 87 | 1004.4 |
| 20260508073503 | 2 | 0 | 0.0 | 0.0 | 0.00 | 0.00 | 0.00 | 87 | 1004.4 |
| 20260508073005 | 2 | 0 | 0.0 | 0.0 | 0.00 | 0.03 | 0.00 | 87 | 1004.4 |
| 20260508072503 | 2 | 0 | 0.0 | 0.0 | 0.00 | 0.03 | 0.00 | 86 | 1004.5 |
| 20260508072004 | 2 | 0 | 0.0 | 0.0 | 0.00 | 0.03 | 0.00 | 86 | 1004.4 |
| 20260508071505 | 2 | 0 | 0.0 | 0.0 | 0.00 | 0.03 | 0.00 | 86 | 1004.5 |
| 20260508071004 | 2 | 0 | 0.0 | 0.0 | 0.00 | 0.03 | 0.00 | 86 | 1004.5 |
| 20260508070503 | 2 | 322 | 0.0 | 3.2 | 0.00 | 0.03 | 0.00 | 85 | 1004.5 |
| 20260508070003 | 2 | 322 | 0.0 | 3.2 | 0.00 | 0.03 | 0.00 | 84 | 1004.4 |
| 20260508065503 | 2 | 322 | 0.0 | 3.2 | 0.00 | 0.03 | 0.00 | 84 | 1004.4 |
| 20260508065003 | 2 | 322 | 0.0 | 3.2 | 0.00 | 0.03 | 0.00 | 83 | 1004.4 |
| 20260508064504 | 2 | 322 | 1.6 | 4.8 | 0.00 | 0.05 | 0.00 | 83 | 1004.5 |
| 20260508064003 | 3 | 322 | 1.6 | 4.8 | 0.00 | 0.05 | 0.00 | 83 | 1004.5 |
| 20260508063714 | 3 | 322 | 1.6 | 8.0 | 0.00 | 0.05 | 0.00 | 83 | 1004.5 |
| 20260508063003 | 3 | 324 | 1.6 | 8.0 | 0.00 | 0.05 | 0.00 | 84 | 1004.5 |
| 20260508062503 | 3 | 328 | 1.6 | 4.8 | 0.00 | 0.05 | 0.00 | 84 | 1004.5 |
| 20260508062003 | 3 | 328 | 1.6 | 4.8 | 0.00 | 0.05 | 0.00 | 82 | 1004.5 |
| 20260508061503 | 3 | 328 | 1.6 | 4.8 | 0.00 | 0.08 | 0.00 | 82 | 1004.6 |
| 20260508061004 | 3 | 328 | 1.6 | 3.2 | 0.00 | 0.15 | 0.00 | 81 | 1004.6 |
| 20260508060714 | 3 | 328 | 1.6 | 3.2 | 0.00 | 0.23 | 0.00 | 81 | 1004.7 |
| 20260508060213 | 3 | 328 | 1.6 | 3.2 | 0.00 | 0.33 | 0.00 | 80 | 1004.8 |
| 20260508055504 | 3 | 328 | 0.0 | 1.6 | 0.00 | 0.56 | 0.00 | 80 | 1004.7 |
| 20260508055003 | 3 | 328 | 1.6 | 4.8 | 0.00 | 0.56 | 0.00 | 80 | 1004.8 |
| 20260508054503 | 4 | 324 | 3.2 | 14.5 | 0.00 | 0.56 | 0.00 | 80 | 1004.8 |
| 20260508054003 | 4 | 324 | 6.4 | 14.5 | 0.00 | 0.56 | 0.00 | 80 | 1004.7 |
| 20260508053503 | 4 | 325 | 4.8 | 14.5 | 0.00 | 0.56 | 0.00 | 77 | 1004.7 |
| 20260508053213 | 4 | 327 | 3.2 | 14.5 | 0.00 | 0.56 | 0.00 | 78 | 1004.7 |
| 20260508052503 | 5 | 0 | 0.0 | 0.0 | 0.00 | 0.56 | 0.00 | 78 | 1004.8 |
| 20260508052213 | 5 | 0 | 0.0 | 0.0 | 0.00 | 0.56 | 0.00 | 77 | 1004.9 |
| 20260508051504 | 5 | 0 | 0.0 | 0.0 | 0.00 | 0.58 | 0.00 | 76 | 1005.0 |
| 20260508051003 | 5 | 327 | 0.0 | 3.2 | 0.00 | 0.58 | 0.00 | 76 | 1005.1 |
| 20260508050504 | 6 | 327 | 1.6 | 4.8 | 0.00 | 0.58 | 0.00 | 74 | 1005.0 |
| 20260508050003 | 6 | 327 | 3.2 | 4.8 | 0.00 | 0.58 | 0.00 | 73 | 1005.0 |
| 20260508045503 | 6 | 327 | 3.2 | 6.4 | 0.00 | 0.58 | 0.00 | 73 | 1005.0 |
| 20260508045003 | 6 | 327 | 3.2 | 6.4 | 0.00 | 0.58 | 0.00 | 72 | 1004.9 |
| 20260508044503 | 6 | 327 | 3.2 | 8.0 | 0.00 | 0.58 | 0.00 | 70 | 1005.0 |
| 20260508044003 | 6 | 328 | 4.8 | 11.3 | 0.00 | 0.58 | 0.00 | 67 | 1005.1 |
| 20260508043503 | 6 | 331 | 6.4 | 11.3 | 0.00 | 0.58 | 0.00 | 66 | 1005.1 |
| 20260508043003 | 6 | 335 | 8.0 | 14.5 | 0.00 | 0.58 | 0.00 | 67 | 1005.0 |
| 20260508042503 | 6 | 338 | 8.0 | 16.1 | 0.00 | 0.58 | 0.00 | 66 | 1005.1 |
| 20260508042003 | 6 | 338 | 8.0 | 16.1 | 0.00 | 0.58 | 0.00 | 66 | 1005.1 |
| 20260508041505 | 6 | 337 | 8.0 | 14.5 | 0.00 | 0.58 | 0.00 | 66 | 1005.1 |
| 20260508041004 | 6 | 337 | 8.0 | 17.7 | 0.00 | 0.58 | 0.00 | 66 | 1005.1 |
| 20260508040713 | 6 | 339 | 8.0 | 17.7 | 0.00 | 0.58 | 0.00 | 66 | 1005.2 |
| 20260508040005 | 6 | 335 | 6.4 | 14.5 | 0.00 | 0.58 | 0.00 | 68 | 1005.3 |
| 20260508035503 | 6 | 334 | 6.4 | 14.5 | 0.00 | 0.58 | 0.58 | 68 | 1005.3 |
| 20260508035214 | 6 | 335 | 6.4 | 14.5 | 0.00 | 0.58 | 0.58 | 68 | 1005.3 |
| 20260508034504 | 6 | 331 | 6.4 | 12.9 | 0.00 | 0.58 | 0.58 | 69 | 1005.3 |
| 20260508034003 | 6 | 335 | 6.4 | 12.9 | 0.00 | 0.58 | 0.58 | 71 | 1005.5 |
| 20260508033503 | 6 | 347 | 4.8 | 11.3 | 0.00 | 0.61 | 0.58 | 74 | 1005.5 |
| 20260508033004 | 6 | 355 | 3.2 | 4.8 | 0.00 | 0.61 | 0.58 | 77 | 1005.4 |
| 20260508032503 | 6 | 355 | 3.2 | 4.8 | 0.00 | 0.61 | 0.58 | 75 | 1005.3 |
| 20260508032214 | 7 | 355 | 1.6 | 4.8 | 0.00 | 0.61 | 0.58 | 73 | 1005.4 |
| 20260508031503 | 7 | 355 | 3.2 | 4.8 | 0.00 | 0.64 | 0.58 | 73 | 1005.3 |
| 20260508031003 | 7 | 355 | 1.6 | 4.8 | 0.00 | 0.64 | 0.58 | 71 | 1005.4 |
| 20260508030503 | 8 | 355 | 3.2 | 6.4 | 0.00 | 0.66 | 0.58 | 70 | 1005.4 |
| 20260508030003 | 8 | 355 | 3.2 | 6.4 | 0.00 | 0.66 | 0.58 | 67 | 1005.5 |
| 20260508025503 | 8 | 355 | 3.2 | 6.4 | 0.00 | 0.69 | 0.58 | 68 | 1005.3 |
| 20260508025003 | 8 | 355 | 3.2 | 8.0 | 0.00 | 0.71 | 0.58 | 63 | 1005.2 |
| 20260508024503 | 8 | 354 | 6.4 | 14.5 | 0.00 | 0.74 | 0.58 | 60 | 1005.2 |
| 20260508024003 | 8 | 351 | 8.0 | 16.1 | 0.00 | 0.76 | 0.58 | 60 | 1005.0 |
| 20260508023503 | 8 | 348 | 8.0 | 16.1 | 0.00 | 0.81 | 0.58 | 60 | 1005.1 |
| 20260508023003 | 8 | 348 | 9.7 | 19.3 | 0.00 | 0.86 | 0.58 | 61 | 1005.2 |
| 20260508022503 | 8 | 349 | 8.0 | 19.3 | 0.00 | 0.89 | 0.58 | 62 | 1005.2 |
| 20260508022003 | 8 | 350 | 8.0 | 14.5 | 0.00 | 0.89 | 0.58 | 65 | 1005.2 |
| 20260508021503 | 8 | 352 | 6.4 | 14.5 | 0.00 | 0.91 | 0.58 | 63 | 1005.2 |
| 20260508021003 | 9 | 352 | 6.4 | 14.5 | 0.00 | 0.94 | 0.58 | 64 | 1005.3 |
| 20260508020503 | 9 | 351 | 6.4 | 12.9 | 0.00 | 0.99 | 0.58 | 65 | 1005.3 |
| 20260508020003 | 9 | 352 | 11.3 | 20.9 | 0.00 | 1.04 | 0.58 | 64 | 1005.3 |
| 20260508015504 | 10 | 351 | 12.9 | 20.9 | 0.00 | 1.07 | 0.58 | 60 | 1005.4 |
| 20260508015003 | 10 | 349 | 14.5 | 27.4 | 0.00 | 1.09 | 0.58 | 60 | 1005.4 |
| 20260508014712 | 10 | 351 | 16.1 | 27.4 | 0.00 | 1.12 | 0.58 | 61 | 1005.4 |
| 20260508014004 | 10 | 355 | 14.5 | 22.5 | 0.00 | 1.17 | 0.58 | 62 | 1005.2 |
| 20260508013503 | 10 | 358 | 14.5 | 20.9 | 0.00 | 1.24 | 0.58 | 65 | 1005.3 |
| 20260508013004 | 10 | 2 | 14.5 | 24.1 | 0.00 | 1.27 | 0.58 | 63 | 1005.3 |
| 20260508012714 | 10 | 3 | 16.1 | 24.1 | 0.00 | 1.30 | 0.58 | 62 | 1005.3 |
| 20260508012003 | 10 | 4 | 16.1 | 25.7 | 0.00 | 1.32 | 0.58 | 63 | 1005.1 |
| 20260508011503 | 10 | 3 | 17.7 | 25.7 | 0.00 | 1.35 | 0.58 | 62 | 1005.2 |
| 20260508011003 | 10 | 1 | 17.7 | 25.7 | 0.00 | 1.35 | 0.58 | 63 | 1005.0 |
| 20260508010503 | 10 | 359 | 20.9 | 30.6 | 0.00 | 1.37 | 0.58 | 64 | 1005.0 |
| 20260508010213 | 10 | 359 | 22.5 | 30.6 | 0.00 | 1.40 | 0.58 | 64 | 1004.9 |
| 20260508005503 | 10 | 353 | 20.9 | 33.8 | 0.00 | 1.45 | 0.58 | 65 | 1004.9 |
| 20260508005003 | 10 | 354 | 20.9 | 33.8 | 0.00 | 1.47 | 0.58 | 69 | 1004.8 |
| 20260508004503 | 10 | 354 | 17.7 | 29.0 | 0.00 | 1.52 | 0.58 | 76 | 1004.7 |
| 20260508004004 | 10 | 351 | 14.5 | 24.1 | 0.00 | 1.55 | 0.58 | 79 | 1004.7 |
| 20260508003503 | 10 | 344 | 9.7 | 22.5 | 0.00 | 1.60 | 0.58 | 82 | 1004.6 |
| 20260508003003 | 10 | 330 | 6.4 | 12.9 | 0.00 | 1.63 | 0.58 | 82 | 1004.4 |
| 20260508002504 | 10 | 336 | 4.8 | 11.3 | 0.00 | 1.68 | 0.58 | 82 | 1004.4 |
| 20260508002003 | 10 | 338 | 3.2 | 8.0 | 0.00 | 1.73 | 0.58 | 82 | 1004.3 |
| 20260508001503 | 10 | 339 | 3.2 | 8.0 | 0.00 | 1.78 | 0.58 | 81 | 1004.3 |
| 20260508001003 | 10 | 339 | 4.8 | 8.0 | 0.00 | 1.83 | 0.58 | 81 | 1004.2 |
| 20260508000503 | 10 | 356 | 4.8 | 14.5 | 0.00 | 1.85 | 0.58 | 81 | 1004.0 |
| 20260508000003 | 10 | 10 | 8.0 | 16.1 | 0.00 | 1.91 | 0.58 | 81 | 1003.9 |
| 20260507235503 | 10 | 352 | 4.8 | 16.1 | 0.00 | 1.93 | 0.58 | 80 | 1003.8 |
| 20260507235003 | 10 | 260 | 3.2 | 12.9 | 0.00 | 1.93 | 0.58 | 77 | 1003.4 |
| 20260507234503 | 10 | 252 | 3.2 | 12.9 | 0.00 | 1.93 | 0.58 | 77 | 1003.0 |
| 20260507234003 | 10 | 248 | 1.6 | 8.0 | 0.00 | 1.96 | 0.58 | 76 | 1003.0 |
| 20260507233505 | 10 | 251 | 1.6 | 9.7 | 0.00 | 1.96 | 0.58 | 76 | 1002.9 |
| 20260507233003 | 10 | 255 | 3.2 | 12.9 | 0.00 | 1.96 | 0.58 | 76 | 1002.8 |
| 20260507232503 | 11 | 240 | 3.2 | 12.9 | 0.00 | 1.96 | 0.58 | 75 | 1002.7 |
| 20260507232003 | 11 | 227 | 3.2 | 11.3 | 0.00 | 1.98 | 0.58 | 75 | 1002.7 |
| 20260507231503 | 11 | 228 | 1.6 | 9.7 | 0.00 | 1.98 | 0.58 | 74 | 1002.7 |
| 20260507231003 | 11 | 220 | 1.6 | 11.3 | 0.00 | 1.98 | 0.58 | 74 | 1002.6 |
| 20260507230503 | 11 | 239 | 3.2 | 11.3 | 0.00 | 1.98 | 0.58 | 73 | 1002.6 |
| 20260507230004 | 11 | 251 | 1.6 | 9.7 | 0.00 | 1.98 | 0.58 | 73 | 1002.5 |
| 20260507225503 | 11 | 251 | 1.6 | 6.4 | 0.00 | 2.01 | 0.58 | 72 | 1002.4 |
| 20260507225003 | 11 | 240 | 3.2 | 8.0 | 0.00 | 2.01 | 0.58 | 72 | 1002.3 |
| 20260507224713 | 11 | 229 | 3.2 | 8.0 | 0.00 | 2.01 | 0.58 | 72 | 1002.3 |
| 20260507224003 | 12 | 221 | 3.2 | 9.7 | 0.00 | 2.03 | 0.58 | 71 | 1002.3 |
| 20260507223503 | 12 | 233 | 4.8 | 19.3 | 0.00 | 2.03 | 0.58 | 70 | 1002.2 |
| 20260507223003 | 12 | 241 | 4.8 | 19.3 | 0.00 | 2.03 | 0.58 | 70 | 1002.2 |
| 20260507222503 | 12 | 243 | 4.8 | 14.5 | 0.00 | 2.06 | 0.58 | 69 | 1002.3 |
| 20260507222003 | 12 | 238 | 4.8 | 16.1 | 0.00 | 2.06 | 0.58 | 69 | 1002.2 |
| 20260507221715 | 12 | 238 | 6.4 | 17.7 | 0.00 | 2.06 | 0.58 | 69 | 1002.2 |
| 20260507221003 | 12 | 234 | 4.8 | 19.3 | 0.00 | 2.08 | 0.58 | 68 | 1002.3 |
| 20260507220503 | 13 | 239 | 4.8 | 17.7 | 0.00 | 2.08 | 0.58 | 69 | 1002.4 |
| 20260507220003 | 12 | 232 | 6.4 | 17.7 | 0.00 | 2.08 | 0.58 | 69 | 1002.3 |
| 20260507215503 | 12 | 220 | 4.8 | 17.7 | 0.00 | 2.08 | 0.58 | 70 | 1002.3 |
| 20260507215003 | 12 | 213 | 4.8 | 20.9 | 0.00 | 2.11 | 0.58 | 70 | 1002.3 |
| 20260507214503 | 12 | 217 | 6.4 | 20.9 | 0.00 | 2.11 | 0.58 | 69 | 1002.2 |
| 20260507214003 | 12 | 214 | 8.0 | 20.9 | 0.00 | 2.11 | 0.58 | 68 | 1002.3 |
| 20260507213503 | 13 | 213 | 9.7 | 22.5 | 0.00 | 2.11 | 0.58 | 68 | 1002.3 |
| 20260507213003 | 13 | 219 | 8.0 | 27.4 | 0.00 | 2.11 | 0.58 | 68 | 1002.3 |
| 20260507212503 | 13 | 221 | 8.0 | 27.4 | 0.00 | 2.11 | 0.58 | 68 | 1002.3 |
| 20260507212003 | 13 | 221 | 8.0 | 24.1 | 0.00 | 2.11 | 0.58 | 68 | 1002.4 |
| 20260507211503 | 13 | 229 | 8.0 | 24.1 | 0.00 | 2.11 | 0.58 | 68 | 1002.3 |
| 20260507211003 | 13 | 236 | 8.0 | 19.3 | 0.00 | 2.11 | 0.58 | 67 | 1002.3 |
| 20260507210714 | 13 | 241 | 6.4 | 20.9 | 0.00 | 2.11 | 0.58 | 66 | 1002.4 |
| 20260507210004 | 13 | 227 | 8.0 | 20.9 | 0.00 | 2.11 | 0.58 | 66 | 1002.3 |
| 20260507205503 | 13 | 230 | 8.0 | 20.9 | 0.00 | 2.11 | 0.58 | 64 | 1002.3 |
| 20260507205003 | 13 | 236 | 8.0 | 20.9 | 0.00 | 2.11 | 0.58 | 64 | 1002.3 |
| 20260507204503 | 13 | 232 | 9.7 | 25.7 | 0.00 | 2.11 | 0.58 | 62 | 1002.2 |
| 20260507204003 | 14 | 225 | 9.7 | 25.7 | 0.00 | 2.11 | 0.58 | 60 | 1002.2 |
| 20260507203714 | 14 | 220 | 8.0 | 25.7 | 0.00 | 2.11 | 0.58 | 60 | 1002.2 |
| 20260507203003 | 15 | 222 | 9.7 | 27.4 | 0.00 | 2.11 | 0.58 | 60 | 1002.1 |
| 20260507202503 | 15 | 226 | 11.3 | 27.4 | 0.00 | 2.11 | 0.58 | 60 | 1002.1 |
| 20260507202003 | 15 | 235 | 11.3 | 33.8 | 0.00 | 2.11 | 0.58 | 60 | 1002.1 |
| 20260507201503 | 15 | 235 | 9.7 | 33.8 | 0.00 | 2.11 | 0.58 | 60 | 1002.1 |
| 20260507201003 | 15 | 231 | 8.0 | 22.5 | 0.00 | 2.11 | 0.58 | 61 | 1002.1 |
| 20260507200714 | 15 | 221 | 8.0 | 25.7 | 0.00 | 2.11 | 0.58 | 61 | 1002.1 |
| 20260507200003 | 15 | 217 | 8.0 | 25.7 | 0.00 | 2.11 | 0.58 | 60 | 1002.1 |
| 20260507195504 | 15 | 224 | 9.7 | 24.1 | 0.00 | 2.11 | 0.58 | 61 | 1002.0 |
| 20260507195003 | 15 | 230 | 9.7 | 24.1 | 0.00 | 2.11 | 0.58 | 62 | 1002.0 |
| 20260507194503 | 15 | 237 | 9.7 | 24.1 | 0.00 | 2.11 | 0.58 | 62 | 1002.1 |
| 20260507194003 | 15 | 226 | 9.7 | 25.7 | 0.00 | 2.11 | 0.58 | 63 | 1002.1 |
| 20260507193503 | 15 | 220 | 9.7 | 25.7 | 0.00 | 2.11 | 0.58 | 63 | 1002.1 |
| 20260507193003 | 15 | 229 | 9.7 | 24.1 | 0.00 | 2.11 | 0.58 | 64 | 1002.0 |
| 20260507192504 | 15 | 233 | 9.7 | 24.1 | 0.00 | 2.11 | 0.58 | 62 | 1002.0 |
| 20260507192213 | 16 | 234 | 6.4 | 24.1 | 0.00 | 2.11 | 0.58 | 63 | 1002.0 |
| 20260507191503 | 16 | 239 | 6.4 | 22.5 | 0.00 | 2.11 | 0.58 | 66 | 1002.1 |
| 20260507191003 | 16 | 227 | 8.0 | 22.5 | 0.00 | 2.11 | 0.58 | 64 | 1002.1 |
| 20260507190504 | 16 | 220 | 9.7 | 22.5 | 0.00 | 2.11 | 0.58 | 63 | 1002.1 |
| 20260507190005 | 16 | 239 | 11.3 | 30.6 | 0.00 | 2.11 | 0.58 | 61 | 1002.2 |
| 20260507185503 | 16 | 227 | 12.9 | 30.6 | 0.00 | 2.11 | 0.58 | 60 | 1002.1 |
| 20260507185003 | 16 | 218 | 11.3 | 27.4 | 0.00 | 2.11 | 0.58 | 60 | 1002.2 |
| 20260507184714 | 17 | 219 | 9.7 | 27.4 | 0.00 | 2.11 | 0.58 | 59 | 1002.2 |
| 20260507184003 | 16 | 224 | 11.3 | 27.4 | 0.00 | 2.11 | 0.58 | 61 | 1002.1 |
| 20260507183503 | 16 | 227 | 9.7 | 24.1 | 0.00 | 2.11 | 0.58 | 57 | 1002.2 |
| 20260507183213 | 16 | 234 | 8.0 | 19.3 | 0.00 | 2.11 | 0.58 | 58 | 1002.2 |
| 20260507182503 | 16 | 226 | 8.0 | 27.4 | 0.00 | 2.11 | 0.58 | 59 | 1002.1 |
| 20260507182212 | 16 | 225 | 9.7 | 27.4 | 0.00 | 2.11 | 0.58 | 59 | 1002.2 |
| 20260507181503 | 16 | 203 | 8.0 | 25.7 | 0.00 | 2.11 | 0.58 | 62 | 1002.4 |
| 20260507181003 | 15 | 189 | 6.4 | 25.7 | 0.00 | 2.11 | 0.58 | 66 | 1002.3 |
| 20260507180503 | 15 | 186 | 4.8 | 22.5 | 0.00 | 2.11 | 0.58 | 65 | 1002.4 |
| 20260507180003 | 15 | 172 | 3.2 | 11.3 | 0.00 | 2.11 | 0.58 | 66 | 1002.4 |
| 20260507175503 | 15 | 150 | 6.4 | 17.7 | 0.00 | 2.11 | 0.58 | 67 | 1002.6 |
| 20260507175003 | 15 | 150 | 8.0 | 17.7 | 0.00 | 2.11 | 0.58 | 67 | 1002.5 |
| 20260507174503 | 14 | 159 | 8.0 | 16.1 | 0.00 | 2.11 | 0.58 | 66 | 1002.7 |
| 20260507174003 | 14 | 155 | 6.4 | 16.1 | 0.00 | 2.11 | 0.58 | 68 | 1002.5 |
| 20260507173503 | 14 | 153 | 6.4 | 16.1 | 0.00 | 2.11 | 0.58 | 66 | 1002.5 |
| 20260507173004 | 14 | 158 | 4.8 | 14.5 | 0.00 | 2.11 | 0.58 | 64 | 1002.5 |
| 20260507172504 | 15 | 170 | 6.4 | 16.1 | 0.00 | 2.11 | 0.58 | 61 | 1002.4 |
| 20260507172003 | 15 | 170 | 6.4 | 17.7 | 0.00 | 2.11 | 0.58 | 65 | 1002.5 |
| 20260507171503 | 15 | 157 | 4.8 | 17.7 | 0.00 | 2.11 | 0.58 | 65 | 1002.6 |
| 20260507171003 | 14 | 132 | 6.4 | 16.1 | 0.00 | 2.11 | 0.58 | 67 | 1002.7 |
| 20260507170503 | 15 | 101 | 6.4 | 16.1 | 0.00 | 2.11 | 0.58 | 62 | 1002.7 |
| 20260507170214 | 15 | 33 | 4.8 | 16.1 | 0.00 | 2.11 | 0.58 | 62 | 1002.7 |
| 20260507165503 | 15 | 351 | 9.7 | 32.2 | 0.00 | 2.11 | 0.58 | 60 | 1002.8 |
| 20260507165004 | 15 | 350 | 11.3 | 32.2 | 0.00 | 2.11 | 0.58 | 61 | 1002.9 |
| 20260507164503 | 15 | 354 | 9.7 | 19.3 | 0.00 | 2.11 | 0.58 | 62 | 1002.9 |
| 20260507164214 | 15 | 353 | 11.3 | 22.5 | 0.00 | 2.11 | 0.58 | 57 | 1002.9 |
| 20260507163503 | 15 | 354 | 12.9 | 22.5 | 0.00 | 2.11 | 0.58 | 58 | 1003.0 |
| 20260507163003 | 15 | 357 | 11.3 | 17.7 | 0.00 | 2.11 | 0.58 | 61 | 1003.0 |
| 20260507162713 | 15 | 356 | 8.0 | 17.7 | 0.00 | 2.11 | 0.58 | 62 | 1003.1 |
| 20260507162003 | 15 | 356 | 3.2 | 12.9 | 0.00 | 2.11 | 0.58 | 60 | 1003.2 |
| 20260507161503 | 14 | 1 | 4.8 | 12.9 | 0.00 | 2.11 | 0.58 | 63 | 1003.2 |
| 20260507161003 | 14 | 9 | 4.8 | 12.9 | 0.00 | 2.11 | 0.58 | 63 | 1003.3 |
| 20260507160503 | 14 | 7 | 6.4 | 12.9 | 0.00 | 2.11 | 0.58 | 62 | 1003.4 |
| 20260507160005 | 14 | 1 | 6.4 | 12.9 | 0.00 | 2.11 | 0.58 | 62 | 1003.5 |
| 20260507155503 | 14 | 1 | 3.2 | 9.7 | 0.00 | 2.11 | 0.58 | 64 | 1003.6 |
| 20260507155003 | 14 | 4 | 4.8 | 9.7 | 0.00 | 2.11 | 0.58 | 64 | 1003.8 |
| 20260507154503 | 14 | 13 | 6.4 | 14.5 | 0.00 | 2.11 | 0.58 | 67 | 1003.8 |
| 20260507154213 | 14 | 14 | 8.0 | 14.5 | 0.00 | 2.11 | 0.58 | 66 | 1003.8 |
| 20260507153713 | 14 | 12 | 4.8 | 12.9 | 0.00 | 2.11 | 0.58 | 68 | 1003.8 |
| 20260507153004 | 13 | 360 | 4.8 | 14.5 | 0.00 | 2.11 | 0.58 | 67 | 1004.0 |
| 20260507152503 | 13 | 358 | 8.0 | 19.3 | 0.00 | 2.11 | 0.58 | 68 | 1004.1 |
| 20260507152213 | 13 | 353 | 8.0 | 19.3 | 0.00 | 2.11 | 0.58 | 65 | 1004.1 |
| 20260507151504 | 13 | 351 | 11.3 | 22.5 | 0.00 | 2.11 | 0.58 | 66 | 1004.1 |
| 20260507151003 | 13 | 355 | 11.3 | 19.3 | 0.00 | 2.11 | 0.58 | 70 | 1004.0 |
| 20260507150503 | 13 | 353 | 8.0 | 16.1 | 0.00 | 2.11 | 0.58 | 70 | 1004.0 |
| 20260507150003 | 13 | 350 | 9.7 | 19.3 | 0.00 | 2.11 | 0.58 | 68 | 1004.0 |
| 20260507145503 | 13 | 351 | 11.3 | 19.3 | 0.00 | 2.11 | 0.58 | 70 | 1004.1 |
| 20260507145003 | 13 | 345 | 6.4 | 17.7 | 0.00 | 2.11 | 0.58 | 70 | 1004.2 |
| 20260507144503 | 13 | 337 | 4.8 | 11.3 | 0.00 | 2.11 | 0.58 | 72 | 1004.2 |
| 20260507144213 | 13 | 341 | 4.8 | 12.9 | 0.00 | 2.11 | 0.58 | 71 | 1004.3 |
| 20260507143714 | 13 | 343 | 4.8 | 12.9 | 0.00 | 2.11 | 0.58 | 71 | 1004.3 |
| 20260507143003 | 13 | 334 | 4.8 | 14.5 | 0.00 | 2.11 | 0.58 | 72 | 1004.4 |
| 20260507142504 | 12 | 342 | 6.4 | 14.5 | 0.00 | 2.11 | 0.58 | 74 | 1004.6 |
| 20260507142003 | 12 | 345 | 6.4 | 12.9 | 0.00 | 2.11 | 0.58 | 75 | 1004.5 |
| 20260507141503 | 12 | 338 | 4.8 | 14.5 | 0.00 | 2.11 | 0.58 | 76 | 1004.5 |
| 20260507141003 | 12 | 332 | 6.4 | 14.5 | 0.00 | 2.11 | 0.58 | 76 | 1004.7 |
| 20260507140503 | 12 | 337 | 6.4 | 16.1 | 0.00 | 2.11 | 0.58 | 78 | 1004.8 |
| 20260507140004 | 12 | 341 | 6.4 | 16.1 | 0.00 | 2.11 | 0.58 | 77 | 1004.8 |
| 20260507135503 | 12 | 339 | 3.2 | 8.0 | 0.00 | 2.11 | 0.58 | 79 | 1004.7 |
| 20260507135003 | 11 | 338 | 3.2 | 8.0 | 0.00 | 2.11 | 0.58 | 81 | 1004.7 |
| 20260507134503 | 11 | 337 | 3.2 | 11.3 | 0.00 | 2.11 | 0.58 | 81 | 1005.0 |
| 20260507134003 | 11 | 344 | 4.8 | 12.9 | 0.00 | 2.11 | 0.58 | 81 | 1005.1 |
| 20260507133503 | 11 | 349 | 6.4 | 12.9 | 0.00 | 2.11 | 0.58 | 82 | 1005.1 |
| 20260507133003 | 11 | 351 | 8.0 | 24.1 | 0.00 | 2.11 | 0.58 | 82 | 1005.2 |
| 20260507132503 | 10 | 350 | 14.5 | 30.6 | 0.00 | 2.11 | 0.58 | 83 | 1005.2 |
| 20260507132003 | 10 | 349 | 19.3 | 30.6 | 0.00 | 2.11 | 0.58 | 84 | 1004.9 |
| 20260507131505 | 10 | 350 | 19.3 | 33.8 | 0.00 | 2.11 | 0.58 | 85 | 1005.0 |
| 20260507131003 | 10 | 349 | 17.7 | 33.8 | 0.00 | 2.11 | 0.58 | 85 | 1004.9 |
| 20260507130503 | 10 | 345 | 16.1 | 27.4 | 0.00 | 2.11 | 0.58 | 86 | 1005.1 |
| 20260507130004 | 10 | 345 | 16.1 | 29.0 | 0.00 | 2.11 | 0.58 | 87 | 1005.1 |
| 20260507125503 | 9 | 348 | 17.7 | 30.6 | 0.00 | 2.11 | 0.58 | 88 | 1005.0 |
| 20260507125003 | 9 | 352 | 12.9 | 30.6 | 0.00 | 2.11 | 0.58 | 89 | 1004.6 |
| 20260507124713 | 9 | 353 | 11.3 | 20.9 | 0.00 | 2.11 | 0.58 | 90 | 1004.8 |
| 20260507124003 | 8 | 351 | 9.7 | 17.7 | 0.00 | 2.11 | 0.58 | 90 | 1004.8 |
| 20260507123504 | 8 | 343 | 8.0 | 17.7 | 0.00 | 2.11 | 0.58 | 91 | 1004.8 |
| 20260507123004 | 8 | 340 | 8.0 | 12.9 | 0.00 | 2.11 | 0.58 | 91 | 1004.5 |
| 20260507122503 | 8 | 340 | 6.4 | 12.9 | 0.00 | 2.11 | 0.58 | 92 | 1004.4 |
| 20260507122214 | 8 | 342 | 6.4 | 12.9 | 0.00 | 2.11 | 0.58 | 92 | 1004.3 |
| 20260507121504 | 8 | 351 | 4.8 | 12.9 | 0.00 | 2.11 | 0.58 | 92 | 1004.9 |
| 20260507121003 | 8 | 345 | 3.2 | 11.3 | 0.00 | 2.11 | 0.58 | 93 | 1004.5 |
| 20260507120503 | 8 | 340 | 4.8 | 12.9 | 0.00 | 2.11 | 0.58 | 93 | 1004.9 |
| 20260507120004 | 8 | 344 | 6.4 | 14.5 | 0.00 | 2.11 | 0.58 | 93 | 1005.3 |
| 20260507115503 | 8 | 346 | 9.7 | 16.1 | 0.00 | 2.11 | 0.58 | 93 | 1005.5 |
| 20260507115214 | 8 | 345 | 9.7 | 16.1 | 0.00 | 2.11 | 0.58 | 94 | 1005.0 |
| 20260507114503 | 8 | 336 | 4.8 | 12.9 | 0.00 | 2.11 | 0.58 | 94 | 1004.8 |
| 20260507114214 | 8 | 336 | 4.8 | 12.9 | 0.00 | 2.11 | 0.58 | 94 | 1005.2 |
| 20260507113503 | 8 | 337 | 1.6 | 8.0 | 0.00 | 2.11 | 0.58 | 94 | 1005.9 |
| 20260507113003 | 8 | 337 | 1.6 | 6.4 | 0.00 | 2.11 | 0.58 | 94 | 1005.4 |
| 20260507112503 | 8 | 337 | 1.6 | 6.4 | 0.00 | 2.11 | 0.58 | 94 | 1005.6 |
| 20260507112003 | 8 | 337 | 1.6 | 8.0 | 0.00 | 2.11 | 0.58 | 94 | 1005.7 |